This demonstration page uses our WeatherBlox Daily Observations layout. Learn more.

Left ArrowRight Arrow

Hourly Observations for December 7, 2021

Temp ( °F °C ) Dew Point ( °F °C ) Humidity (%) Winds ( mph kmh ) Pressure ( in mb ) Visibility ( mi km ) Precip ( " mm )
12:51 am 00:51 Clear 45 7.2 23 -5 42 42 Calm 29.93 1014 10 16 0.00 0.00
1:51 am 01:51 Clear 42 5.6 23 -5 47 47 E 5 7 29.93 1013 10 16 0.00 0.00
2:51 am 02:51 Clear 44 6.7 24 -4.4 45 45 SE 3 6 29.91 1013 10 16 0.00 0.00
3:51 am 03:51 Clear 41 5 23 -5 49 49 S 3 6 29.91 1013 10 16 0.00 0.00
4:51 am 04:51 Clear 42 5.6 23 -5 47 47 SSW 3 6 29.90 1013 10 16 0.00 0.00
5:51 am 05:51 Clear 39 3.9 23 -5 53 53 NNW 3 6 29.94 1014 10 16 0.00 0.00
6:51 am 06:51 Clear 40 4.4 24 -4.4 53 53 NNW 3 6 29.96 1015 10 16 0.00 0.00
7:51 am 07:51 Sunny 40 4.4 24 -4.4 53 53 Calm 29.98 1015 10 16 0.00 0.00
8:51 am 08:51 Sunny 46 7.8 25 -3.9 44 44 SE 6 9 29.98 1015 10 16 0.00 0.00
9:51 am 09:51 Sunny 51 10.6 26 -3.3 38 38 Calm 29.99 1016 10 16 0.00 0.00
10:51 am 10:51 Sunny 56 13.3 28 -2.2 34 34 S 5 7 29.98 1015 10 16 0.00 0.00
11:51 am 11:51 Sunny 60 15.6 28 -2.2 30 30 Calm 29.94 1014 10 16 0.00 0.00
12:51 pm 12:51 Sunny 63 17.2 28 -2.2 27 27 VRB 3 6 29.91 1013 10 16 0.00 0.00
1:51 pm 13:51 Sunny 63 17.2 27 -2.8 26 26 W 3 6 29.90 1013 10 16 0.00 0.00
2:51 pm 14:51 Sunny 66 18.9 26 -3.3 22 22 Calm 29.89 1012 10 16 0.00 0.00
3:51 pm 15:51 Sunny 67 19.4 27 -2.8 22 22 Calm 29.91 1013 10 16 0.00 0.00
4:51 pm 16:51 Sunny 65 18.3 27 -2.8 24 24 NNW 6 9 29.91 1013 10 16 0.00 0.00
5:51 pm 17:51 Clear 55 12.8 26 -3.3 33 33 NW 3 6 29.95 1014 10 16 0.00 0.00
6:51 pm 18:51 Clear 52 11.1 26 -3.3 37 37 NW 9 15 29.97 1015 10 16 0.00 0.00
7:51 pm 19:51 Clear 49 9.4 25 -3.9 39 39 Calm 29.98 1015 10 16 0.00 0.00
8:51 pm 20:51 Clear 47 8.3 24 -4.4 41 41 SE 7 11 29.98 1015 10 16 0.00 0.00
9:51 pm 21:51 Clear 45 7.2 24 -4.4 44 44 E 5 7 29.99 1016 10 16 0.00 0.00
10:51 pm 22:51 Clear 47 8.3 25 -3.9 42 42 SE 9 15 29.98 1015 10 16 0.00 0.00
11:51 pm 23:51 Clear 42 5.6 23 -5 47 47 E 5 7 30.00 1016 10 16 0.00 0.00

Powered by AerisWeather